DW4909 Weather Reports


time (UTC)temp
C
wind
direction
speed
KPH
gust
KPH
rain 1hr
cm
rain 24hr
cm
rain mn
cm
humidity
%
barometer
mb
20260505101548 7 112 0.0 0.0 0.00 0.00 0.00 72 1016.0
20260505100045 7 112 0.0 0.0 0.00 0.00 0.00 71 1016.0
20260505094540 8 112 0.0 0.0 0.00 0.00 0.00 71 1015.6
20260505093038 7 112 0.0 0.0 0.00 0.00 0.00 68 1015.5
20260505091537 7 112 0.0 0.0 0.00 0.00 0.00 63 1015.3
20260505090029 8 112 0.0 0.0 0.00 0.00 0.00 63 1015.5
20260505084541 8 112 0.0 0.0 0.00 0.00 0.00 62 1015.5
20260505083041 8 112 0.0 0.0 0.00 0.00 0.00 62 1015.4
20260505081521 9 112 0.0 0.0 0.00 0.00 0.00 61 1015.4
20260505080024 10 112 0.0 3.2 0.00 0.00 0.00 61 1015.4
20260505074509 10 98 0.0 0.0 0.00 0.00 0.00 62 1015.3
20260505073017 10 98 0.0 0.0 0.00 0.00 0.00 62 1015.1
20260505071503 10 98 0.0 0.0 0.00 0.00 0.00 64 1015.1
20260505070057 11 98 0.0 0.0 0.00 0.00 0.00 63 1015.1
20260505064551 11 98 0.0 0.0 0.00 0.00 0.00 63 1015.0
20260505063052 12 98 0.0 1.6 0.00 0.00 0.00 62 1015.1
20260505061544 12 98 0.0 1.6 0.00 0.00 0.00 60 1015.2
20260505060056 12 143 0.0 1.6 0.00 0.00 0.00 59 1015.3
20260505054536 12 146 0.0 3.2 0.00 0.00 0.00 60 1015.4
20260505053037 12 113 0.0 0.0 0.00 0.00 0.00 60 1015.6
20260505051530 12 113 0.0 0.0 0.00 0.00 0.00 60 1015.7
20260505041513 13 148 0.0 0.0 0.00 0.00 0.00 56 1015.8
20260505040013 13 148 0.0 0.0 0.00 0.00 0.00 55 1016.0
20260505034506 13 148 0.0 1.6 0.00 0.00 0.00 53 1015.7
20260505033004 13 129 0.0 0.0 0.00 0.00 0.00 54 1015.7
20260505031503 12 152 0.0 1.6 0.00 0.00 0.00 57 1015.8
20260505030002 12 110 0.0 0.0 0.00 0.00 0.00 55 1015.6
20260505024601 12 110 0.0 0.0 0.00 0.00 0.00 54 1015.6
20260505023058 13 110 0.0 0.0 0.00 0.00 0.00 53 1015.6
20260505021557 13 110 0.0 0.0 0.00 0.00 0.00 53 1015.5
20260505020100 13 110 0.0 0.0 0.00 0.00 0.00 51 1015.4
20260505014607 15 110 0.0 0.0 0.00 0.00 0.00 47 1015.3
20260505013054 15 110 0.0 0.0 0.00 0.00 0.00 44 1015.1
20260505011550 15 110 0.0 1.6 0.00 0.00 0.00 45 1015.0
20260505010054 15 126 0.0 0.0 0.00 0.00 0.00 44 1014.8
20260505004647 16 126 0.0 0.0 0.00 0.00 0.00 40 1014.5
20260505003056 17 126 0.0 0.0 0.00 0.00 0.00 35 1014.3
20260505001545 19 126 0.0 0.0 0.00 0.00 0.00 33 1014.3
20260505000042 21 126 0.0 1.6 0.00 0.00 0.00 26 1014.2
20260504234540 22 239 0.0 4.8 0.00 0.00 0.00 23 1014.1
20260504233038 23 105 0.0 3.2 0.00 0.00 0.00 22 1014.0
20260504231536 24 129 0.0 6.4 0.00 0.00 0.00 19 1013.9
20260504230034 24 126 1.6 8.0 0.00 0.00 0.00 18 1014.0
20260504224531 24 168 1.6 11.3 0.00 0.00 0.00 19 1014.0
20260504223032 25 113 3.2 12.9 0.00 0.00 0.00 20 1014.0
20260504221528 25 169 1.6 12.9 0.00 0.00 0.00 21 1013.9
20260504220028 26 161 3.2 11.3 0.00 0.00 0.00 20 1013.9
20260504214523 26 198 1.6 14.5 0.00 0.00 0.00 19 1013.7
20260504213025 26 52 1.6 12.9 0.00 0.00 0.00 14 1013.9
20260504211529 26 153 4.8 0.0 0.00 0.00 0.00 13 1014.0
20260504210016 26 146 4.8 19.3 0.00 0.00 0.00 17 1014.0
20260504204513 26 115 4.8 14.5 0.00 0.00 0.00 16 1013.9
20260504203008 26 129 3.2 9.7 0.00 0.00 0.00 16 1014.0
20260504201504 26 174 1.6 12.9 0.00 0.00 0.00 17 1014.1
20260504200101 26 75 3.2 9.7 0.00 0.00 0.00 16 1014.3
20260504194559 26 129 1.6 17.7 0.00 0.00 0.00 17 1014.5
20260504193105 26 185 4.8 17.7 0.00 0.00 0.00 15 1014.8
20260504191607 26 251 0.0 9.7 0.00 0.00 0.00 11 1015.0
20260504190054 26 323 3.2 11.3 0.00 0.00 0.00 15 1015.2
20260504184548 26 245 1.6 9.7 0.00 0.00 0.00 15 1015.4
20260504183035 25 356 3.2 12.9 0.00 0.00 0.00 18 1015.6
20260504181535 25 131 1.6 8.0 0.00 0.00 0.00 17 1015.8
20260504180030 25 148 1.6 12.9 0.00 0.00 0.00 17 1015.7
20260504174525 24 103 0.0 4.8 0.00 0.00 0.00 23 1015.9
20260504173021 24 179 1.6 9.7 0.00 0.00 0.00 22 1016.0
20260504171517 23 26 1.6 11.3 0.00 0.00 0.00 21 1016.0